Location: Bremen
(53.0793°N, 8.8017°E)
Time: 01:15:31
(UTC+01:00)

deb Explorer IX - Pass Details

Date: 14 December 2021
Orbit: 544 x 1082 km, 38.8° (Epoch: 16 January)

Event Time Altitude Azimuth Distance (km) Brightness Sun altitude
Rises 10:24:41 0° 253° (WSW) 3,345 ? 9.7°
Reaches altitude 10° 10:29:07 10° 222° (SW) 2,256 ? 10.0°
Maximum altitude 10:30:49 12° 203° (SSW) 2,093 ? 10.1°
Drops below altitude 10° 10:32:27 10° 183° (S) 2,140 ? 10.2°
Sets 10:36:19 0° 150° (SSE) 2,924 ? 10.5°
